When you browse on this site, cookies collect data to enhance your experience and personalize the content and advertising you see.
Visit our Privacy Policy to learn more. By continuing to use the site, you agree to this use of cookies and data.
  • In Sweden
  • List of Countries
  • For 7 days
  • Water Temperature
  • Weather Map
  • Weather Widgets
  • user-avatar
    Login

    Hourly Weather Bruay-la-Buissiere

    Today, 23 August, Friday

    Time Temperature Precipitation Wind Pressure Humidity
    00:00 +14°C° 0 mm 1 mps 764 mmHg 73%
    01:00 +14°C° 0 mm 1 mps 763 mmHg 74%
    02:00 +12°C° 0 mm 0 mps 763 mmHg 74%
    03:00 +12°C° 0 mm 0 mps 763 mmHg 75%
    04:00 +12°C° 0 mm 0 mps 763 mmHg 73%
    05:00 +13°C° 0 mm 0 mps 763 mmHg 71%
    06:00 +14°C° 0 mm 0 mps 763 mmHg 69%
    07:00 +16°C° 0 mm 0 mps 763 mmHg 61%
    08:00 +20°C° 0 mm 1 mps 764 mmHg 54%
    09:00 +22°C° 0 mm 1 mps 764 mmHg 46%
    10:00 +23°C° 0 mm 2 mps 763 mmHg 42%
    11:00 +25°C° 0 mm 2 mps 763 mmHg 38%
    12:00 +26°C° 0 mm 2 mps 763 mmHg 34%
    13:00 +27°C° 0 mm 2 mps 762 mmHg 33%
    14:00 +27°C° 0 mm 1 mps 762 mmHg 32%
    15:00 +28°C° 0 mm 1 mps 762 mmHg 31%
    16:00 +27°C° 0 mm 1 mps 762 mmHg 37%
    17:00 +25°C° 0 mm 2 mps 761 mmHg 43%
    18:00 +24°C° 0 mm 2 mps 761 mmHg 49%
    19:00 +23°C° 0 mm 2 mps 761 mmHg 52%
    20:00 +20°C° 0 mm 2 mps 761 mmHg 56%
    21:00 +19°C° 0 mm 2 mps 761 mmHg 59%
    22:00 +18°C° 0 mm 2 mps 761 mmHg 63%
    23:00 +18°C° 0 mm 2 mps 761 mmHg 67%

    Tomorrow, 24 August, Saturday

    Time Temperature Precipitation Wind Pressure Humidity
    00:00 +18°C° 0 mm 2 mps 760 mmHg 71%
    01:00 +17°C° 0 mm 2 mps 760 mmHg 72%
    02:00 +17°C° 0 mm 2 mps 760 mmHg 73%
    03:00 +18°C° 0 mm 1 mps 760 mmHg 75%
    04:00 +17°C° 0 mm 2 mps 759 mmHg 74%
    05:00 +17°C° 0 mm 2 mps 759 mmHg 73%
    06:00 +17°C° 0 mm 2 mps 759 mmHg 72%
    07:00 +20°C° 0 mm 2 mps 759 mmHg 65%
    08:00 +23°C° 0 mm 2 mps 759 mmHg 58%
    09:00 +26°C° 0 mm 2 mps 760 mmHg 51%
    10:00 +27°C° 0 mm 3 mps 759 mmHg 48%
    11:00 +28°C° 0 mm 3 mps 759 mmHg 45%
    12:00 +29°C° 0 mm 3 mps 758 mmHg 41%
    13:00 +30°C° 0 mm 3 mps 758 mmHg 40%
    14:00 +30°C° 0 mm 3 mps 758 mmHg 39%
    15:00 +31°C° 0 mm 3 mps 758 mmHg 37%
    16:00 +29°C° 0 mm 2 mps 757 mmHg 42%
    17:00 +28°C° 0 mm 2 mps 757 mmHg 47%
    18:00 +27°C° 0 mm 1 mps 757 mmHg 52%
    19:00 +25°C° 0 mm 1 mps 757 mmHg 55%
    20:00 +24°C° 0 mm 1 mps 757 mmHg 58%
    21:00 +21°C° 0 mm 0 mps 758 mmHg 60%
    22:00 +22°C° 0 mm 1 mps 757 mmHg 62%
    23:00 +22°C° 0 mm 1 mps 757 mmHg 64%

    Day after tomorrow, 25 August, Sunday

    Time Temperature Precipitation Wind Pressure Humidity
    00:00 +22°C° 0 mm 1 mps 757 mmHg 65%
    01:00 +21°C° 0 mm 1 mps 757 mmHg 68%
    02:00 +21°C° 0 mm 1 mps 757 mmHg 71%
    03:00 +20°C° 0 mm 1 mps 757 mmHg 74%
    04:00 +20°C° 0 mm 1 mps 757 mmHg 75%
    05:00 +21°C° 0 mm 1 mps 757 mmHg 75%
    06:00 +21°C° 0 mm 1 mps 757 mmHg 76%
    07:00 +23°C° 0 mm 1 mps 757 mmHg 68%
    08:00 +25°C° 0 mm 1 mps 757 mmHg 60%
    09:00 +27°C° 0 mm 1 mps 757 mmHg 53%
    10:00 +29°C° 0 mm 1 mps 757 mmHg 47%
    11:00 +30°C° 0 mm 2 mps 757 mmHg 42%
    12:00 +31°C° 0 mm 2 mps 757 mmHg 36%
    13:00 +32°C° 0 mm 1 mps 757 mmHg 34%
    14:00 +32°C° 0 mm 1 mps 757 mmHg 32%
    15:00 +33°C° 0 mm 1 mps 757 mmHg 30%
    16:00 +31°C° 0 mm 1 mps 757 mmHg 35%
    17:00 +30°C° 0 mm 1 mps 757 mmHg 40%
    18:00 +28°C° 0 mm 1 mps 757 mmHg 45%
    19:00 +27°C° 0 mm 1 mps 757 mmHg 50%
    20:00 +25°C° 0 mm 1 mps 758 mmHg 55%
    21:00 +23°C° 0 mm 1 mps 758 mmHg 59%
    22:00 +23°C° 0 mm 1 mps 758 mmHg 60%
    23:00 +23°C° 0 mm 1 mps 758 mmHg 61%

    26 August, Monday

    Time Temperature Precipitation Wind Pressure Humidity
    00:00 +23°C° 0 mm 1 mps 757 mmHg 61%
    01:00 +22°C° 0 mm 1 mps 757 mmHg 63%
    02:00 +22°C° 0 mm 1 mps 757 mmHg 64%
    03:00 +22°C° 0 mm 1 mps 757 mmHg 65%
    04:00 +22°C° 0 mm 1 mps 757 mmHg 66%
    05:00 +22°C° 0 mm 1 mps 757 mmHg 67%
    06:00 +22°C° 0 mm 1 mps 757 mmHg 68%
    07:00 +24°C° 0 mm 1 mps 757 mmHg 61%
    08:00 +26°C° 0 mm 1 mps 758 mmHg 54%
    09:00 +28°C° 0 mm 2 mps 758 mmHg 47%
    10:00 +30°C° 0 mm 2 mps 757 mmHg 43%
    11:00 +31°C° 0 mm 2 mps 757 mmHg 39%
    12:00 +33°C° 0 mm 3 mps 757 mmHg 35%
    13:00 +33°C° 0 mm 3 mps 757 mmHg 33%
    14:00 +34°C° 0 mm 3 mps 757 mmHg 32%
    15:00 +34°C° 0 mm 3 mps 756 mmHg 31%
    16:00 +31°C° 0 mm 3 mps 756 mmHg 35%
    17:00 +30°C° 0 mm 3 mps 756 mmHg 40%
    18:00 +28°C° 0 mm 2 mps 755 mmHg 44%
    19:00 +27°C° 0 mm 2 mps 756 mmHg 46%
    20:00 +25°C° 0 mm 2 mps 756 mmHg 48%
    21:00 +24°C° 0 mm 2 mps 756 mmHg 50%
    22:00 +23°C° 0 mm 2 mps 756 mmHg 53%
    23:00 +23°C° 0 mm 2 mps 755 mmHg 55%

    27 August, Tuesday

    Time Temperature Precipitation Wind Pressure Humidity
    00:00 +21°C° 0 mm 2 mps 755 mmHg 58%
    01:00 +21°C° 0 mm 2 mps 755 mmHg 60%
    02:00 +21°C° 0 mm 2 mps 755 mmHg 63%
    03:00 +21°C° 0 mm 2 mps 754 mmHg 66%
    04:00 +21°C° 0 mm 2 mps 754 mmHg 67%
    05:00 +21°C° 0 mm 2 mps 754 mmHg 67%
    06:00 +21°C° 0 mm 2 mps 754 mmHg 68%
    07:00 +24°C° 0 mm 2 mps 754 mmHg 62%
    08:00 +26°C° 0 mm 3 mps 754 mmHg 56%
    09:00 +27°C° 0 mm 3 mps 754 mmHg 51%
    10:00 +29°C° 0 mm 3 mps 754 mmHg 47%
    11:00 +30°C° 0 mm 3 mps 754 mmHg 43%
    12:00 +31°C° 0 mm 3 mps 754 mmHg 40%
    13:00 +30°C° 0 mm 4 mps 754 mmHg 42%
    14:00 +30°C° 0 mm 4 mps 753 mmHg 45%
    15:00 +29°C° 0 mm 5 mps 753 mmHg 48%
    16:00 +27°C° 0.3 mm 5 mps 753 mmHg 54%
    17:00 +25°C° 0.3 mm 4 mps 754 mmHg 61%
    18:00 +22°C° 0.3 mm 4 mps 754 mmHg 68%
    19:00 +21°C° 0 mm 4 mps 754 mmHg 72%
    20:00 +21°C° 0 mm 4 mps 754 mmHg 77%
    21:00 +20°C° 0 mm 3 mps 755 mmHg 82%
    22:00 +19°C° 0 mm 4 mps 755 mmHg 83%
    23:00 +19°C° 0 mm 4 mps 755 mmHg 85%

    28 August, Wednesday

    Time Temperature Precipitation Wind Pressure Humidity
    00:00 +18°C° 0 mm 4 mps 755 mmHg 87%
    01:00 +18°C° 0 mm 4 mps 755 mmHg 85%
    02:00 +17°C° 0 mm 5 mps 755 mmHg 84%
    03:00 +17°C° 0 mm 5 mps 755 mmHg 82%
    04:00 +17°C° 0 mm 5 mps 756 mmHg 83%
    05:00 +16°C° 0 mm 5 mps 756 mmHg 83%
    06:00 +16°C° 0 mm 5 mps 756 mmHg 84%
    07:00 +17°C° 0 mm 5 mps 757 mmHg 79%
    08:00 +19°C° 0 mm 5 mps 757 mmHg 74%
    09:00 +20°C° 0 mm 5 mps 757 mmHg 68%
    10:00 +21°C° 0 mm 5 mps 758 mmHg 64%
    11:00 +22°C° 0 mm 5 mps 758 mmHg 59%
    12:00 +23°C° 0 mm 6 mps 758 mmHg 55%
    13:00 +23°C° 0 mm 6 mps 758 mmHg 55%
    14:00 +23°C° 0 mm 6 mps 757 mmHg 55%
    15:00 +23°C° 0 mm 6 mps 757 mmHg 55%
    16:00 +22°C° 0 mm 5 mps 758 mmHg 59%
    17:00 +21°C° 0 mm 5 mps 758 mmHg 64%
    18:00 +20°C° 0 mm 4 mps 758 mmHg 69%
    19:00 +19°C° 0 mm 4 mps 758 mmHg 75%
    20:00 +18°C° 0 mm 3 mps 758 mmHg 82%
    21:00 +17°C° 0 mm 3 mps 759 mmHg 89%
    22:00 +16°C° 0 mm 3 mps 759 mmHg 90%
    23:00 +16°C° 0 mm 3 mps 759 mmHg 91%
    Show more